AAL124 KPHX-KLAX

Flight info

Callsign AAL124
Flight time 0h 57m
Altitude 36000
Route KEENS3 WLVRN ESTWD HLYWD1
Aircraft A20N/M-SDE2E3FGHIRWXY/LB1

Departure

Time 2026-04-24 03:03
Airport Phoenix Sky Harbor International Airport (KPHX)

Arrival

Time 2026-04-24 04:00
Airport Los Angeles International Airport (KLAX)
Time Latitude Longitude Altitude Speed Heading
2026-04-24 02:43 33.43393 -111.99986 1135 ft 0 kts 85°
2026-04-24 02:52 33.43393 -111.99991 1135 ft 4 kts 85°
2026-04-24 02:52 33.43392 -112.00011 1133 ft 5 kts 96°
2026-04-24 02:52 33.43412 -112.00035 1133 ft 2 kts 197°
2026-04-24 02:54 33.43401 -112.00035 1139 ft 0 kts 181°
2026-04-24 02:55 33.43372 -112.00036 1132 ft 14 kts 181°
2026-04-24 02:55 33.43295 -112.00028 1135 ft 5 kts 139°
2026-04-24 02:55 33.43283 -111.99917 1132 ft 21 kts 81°
2026-04-24 02:56 33.43281 -111.99847 1131 ft 13 kts 96°
2026-04-24 02:56 33.43216 -111.99719 1134 ft 25 kts 95°
2026-04-24 02:56 33.43214 -111.99518 1133 ft 23 kts 90°
2026-04-24 02:56 33.43214 -111.99451 1131 ft 0 kts 90°
2026-04-24 02:57 33.43214 -111.99435 1133 ft 4 kts 90°
2026-04-24 02:58 33.43212 -111.99390 1134 ft 7 kts 99°
2026-04-24 02:58 33.43201 -111.99365 1136 ft 0 kts 134°
2026-04-24 02:58 33.43200 -111.99364 1136 ft 1 kts 135°
2026-04-24 02:59 33.43185 -111.99351 1133 ft 5 kts 153°
2026-04-24 02:59 33.43126 -111.99349 1137 ft 11 kts 199°
2026-04-24 02:59 33.43103 -111.99424 1136 ft 0 kts 265°
2026-04-24 03:00 33.43103 -111.99425 1135 ft 1 kts 266°
2026-04-24 03:00 33.43104 -111.99428 1135 ft 0 kts 269°
2026-04-24 03:02 33.43103 -111.99512 1135 ft 39 kts 270°
2026-04-24 03:02 33.43100 -112.00174 1134 ft 116 kts 269°
2026-04-24 03:02 33.43099 -112.01387 1144 ft 172 kts 268°
2026-04-24 03:03 33.43103 -112.02834 1819 ft 175 kts 267°
2026-04-24 03:03 33.43119 -112.04331 2516 ft 185 kts 268°
2026-04-24 03:03 33.43084 -112.05952 3013 ft 207 kts 266°
2026-04-24 03:03 33.42837 -112.07739 3612 ft 228 kts 254°
2026-04-24 03:04 33.42245 -112.09606 4238 ft 250 kts 247°
2026-04-24 03:04 33.41577 -112.11547 5108 ft 258 kts 249°
2026-04-24 03:04 33.40921 -112.13574 6093 ft 263 kts 250°
2026-04-24 03:04 33.40271 -112.15649 7039 ft 268 kts 251°
2026-04-24 03:05 33.39624 -112.17755 7593 ft 270 kts 253°
2026-04-24 03:05 33.39248 -112.19954 7861 ft 269 kts 267°
2026-04-24 03:05 33.39364 -112.22180 7980 ft 269 kts 281°
2026-04-24 03:05 33.39719 -112.24348 8045 ft 269 kts 281°
2026-04-24 03:06 33.40063 -112.26566 8466 ft 271 kts 280°
2026-04-24 03:06 33.40397 -112.28784 9507 ft 269 kts 280°
2026-04-24 03:06 33.40726 -112.30993 10461 ft 274 kts 280°
2026-04-24 03:06 33.41074 -112.33331 10893 ft 296 kts 279°
2026-04-24 03:07 33.41446 -112.35844 11293 ft 317 kts 279°
2026-04-24 03:07 33.41838 -112.38493 12021 ft 325 kts 279°
2026-04-24 03:07 33.42234 -112.41162 12979 ft 326 kts 279°
2026-04-24 03:07 33.42628 -112.43816 13857 ft 329 kts 279°
2026-04-24 03:08 33.43029 -112.46527 14665 ft 331 kts 279°
2026-04-24 03:08 33.43832 -112.51986 16296 ft 336 kts 279°
2026-04-24 03:08 33.44238 -112.54760 17068 ft 339 kts 279°
2026-04-24 03:09 33.44649 -112.57564 17843 ft 342 kts 279°
2026-04-24 03:09 33.44991 -112.60403 18531 ft 346 kts 274°
2026-04-24 03:09 33.45069 -112.63262 19179 ft 348 kts 270°
2026-04-24 03:09 33.45096 -112.66176 19847 ft 351 kts 271°
2026-04-24 03:10 33.45134 -112.69120 20470 ft 355 kts 271°
2026-04-24 03:10 33.45175 -112.72094 20777 ft 357 kts 271°
2026-04-24 03:10 33.45215 -112.75042 20886 ft 357 kts 271°
2026-04-24 03:10 33.45371 -112.78015 20897 ft 357 kts 276°
2026-04-24 03:11 33.45840 -112.80952 20935 ft 360 kts 283°
2026-04-24 03:11 33.46628 -112.83825 21446 ft 364 kts 290°
2026-04-24 03:11 33.47621 -112.86619 22151 ft 366 kts 290°
2026-04-24 03:11 33.48614 -112.89448 22748 ft 370 kts 290°
2026-04-24 03:12 33.49608 -112.92307 23357 ft 373 kts 290°
2026-04-24 03:12 33.50611 -112.95188 23880 ft 376 kts 290°
2026-04-24 03:12 33.51611 -112.98059 24399 ft 378 kts 290°
2026-04-24 03:12 33.52630 -113.00981 24893 ft 381 kts 290°
2026-04-24 03:13 33.53656 -113.03921 25407 ft 383 kts 290°
2026-04-24 03:13 33.54692 -113.06894 25871 ft 386 kts 290°
2026-04-24 03:13 33.55714 -113.09829 26263 ft 388 kts 290°
2026-04-24 03:13 33.56758 -113.12827 26727 ft 391 kts 290°
2026-04-24 03:14 33.57809 -113.15847 27188 ft 393 kts 290°
2026-04-24 03:14 33.58865 -113.18886 27638 ft 396 kts 290°
2026-04-24 03:14 33.59927 -113.21945 28070 ft 398 kts 290°
2026-04-24 03:14 33.60995 -113.25029 28486 ft 401 kts 290°
2026-04-24 03:15 33.62068 -113.28126 28891 ft 403 kts 290°
2026-04-24 03:15 33.63146 -113.31241 29283 ft 405 kts 290°
2026-04-24 03:15 33.64230 -113.34377 29668 ft 408 kts 290°
2026-04-24 03:15 33.65318 -113.37528 30029 ft 410 kts 289°
2026-04-24 03:16 33.66414 -113.40703 30384 ft 412 kts 289°
2026-04-24 03:16 33.67512 -113.43888 30847 ft 413 kts 289°
2026-04-24 03:16 33.68612 -113.47078 31291 ft 412 kts 289°
2026-04-24 03:16 33.69691 -113.50211 31740 ft 411 kts 289°
2026-04-24 03:17 33.70782 -113.53382 32209 ft 409 kts 289°
2026-04-24 03:17 33.71863 -113.56532 32668 ft 408 kts 289°
2026-04-24 03:17 33.72944 -113.59681 33117 ft 406 kts 289°
2026-04-24 03:17 33.74017 -113.62814 33538 ft 404 kts 288°
2026-04-24 03:18 33.75087 -113.65938 33876 ft 403 kts 288°
2026-04-24 03:18 33.76148 -113.69041 34264 ft 400 kts 288°
2026-04-24 03:18 33.77203 -113.72130 34660 ft 398 kts 288°
2026-04-24 03:18 33.78254 -113.75209 35055 ft 395 kts 288°
2026-04-24 03:19 33.79281 -113.78219 35433 ft 393 kts 288°
2026-04-24 03:19 33.80314 -113.81251 35743 ft 391 kts 288°
2026-04-24 03:19 33.81342 -113.84271 35848 ft 388 kts 288°
2026-04-24 03:20 33.83387 -113.90285 35874 ft 387 kts 288°
2026-04-24 03:20 33.85428 -113.96300 35856 ft 389 kts 288°
2026-04-24 03:21 33.87461 -114.02301 35856 ft 389 kts 288°
2026-04-24 03:21 33.89501 -114.08336 35846 ft 389 kts 287°
2026-04-24 03:22 33.91067 -114.14531 35855 ft 387 kts 279°
2026-04-24 03:22 33.92134 -114.20894 35852 ft 387 kts 279°
2026-04-24 03:23 33.93217 -114.27222 35849 ft 385 kts 279°
2026-04-24 03:23 33.94287 -114.33525 35845 ft 385 kts 279°
2026-04-24 03:24 33.95356 -114.39862 35842 ft 385 kts 278°
2026-04-24 03:24 33.96419 -114.46198 35873 ft 385 kts 278°
2026-04-24 03:25 33.97474 -114.52495 35847 ft 385 kts 278°
2026-04-24 03:25 33.98530 -114.58825 35838 ft 384 kts 278°
2026-04-24 03:26 33.99581 -114.65141 35838 ft 384 kts 278°
2026-04-24 03:26 34.00629 -114.71461 35834 ft 384 kts 278°
2026-04-24 03:27 34.01665 -114.77732 35838 ft 384 kts 278°
2026-04-24 03:27 34.02706 -114.84051 35837 ft 384 kts 278°
2026-04-24 03:28 34.03779 -114.90370 35838 ft 384 kts 278°
2026-04-24 03:28 34.04753 -114.96655 35840 ft 384 kts 278°
2026-04-24 03:29 34.05833 -115.02982 35848 ft 385 kts 279°
2026-04-24 03:29 34.06862 -115.09311 35882 ft 385 kts 278°
2026-04-24 03:30 34.07874 -115.15672 35853 ft 386 kts 278°
2026-04-24 03:30 34.08725 -115.20959 35855 ft 386 kts 278°
2026-04-24 03:31 34.09753 -115.27327 35861 ft 387 kts 278°
2026-04-24 03:31 34.10779 -115.33701 35860 ft 387 kts 278°
2026-04-24 03:32 34.11798 -115.40056 35854 ft 387 kts 278°
2026-04-24 03:32 34.12820 -115.46450 35857 ft 388 kts 278°
2026-04-24 03:33 34.13841 -115.52863 35877 ft 388 kts 278°
2026-04-24 03:33 34.14854 -115.59249 35875 ft 389 kts 278°
2026-04-24 03:34 34.15784 -115.65672 35863 ft 385 kts 274°
2026-04-24 03:34 34.15983 -115.72126 35846 ft 385 kts 266°
2026-04-24 03:34 34.15775 -115.75351 35651 ft 385 kts 263°
2026-04-24 03:35 34.15455 -115.78529 35431 ft 387 kts 263°
2026-04-24 03:35 34.15141 -115.81771 35198 ft 388 kts 263°
2026-04-24 03:35 34.14831 -115.85013 34967 ft 389 kts 263°
2026-04-24 03:35 34.14518 -115.88272 34737 ft 391 kts 263°
2026-04-24 03:36 34.14202 -115.91543 34513 ft 393 kts 263°
2026-04-24 03:36 34.13885 -115.94798 34289 ft 394 kts 263°
2026-04-24 03:36 34.13563 -115.98092 34081 ft 396 kts 263°
2026-04-24 03:36 34.13238 -116.01402 33827 ft 398 kts 263°
2026-04-24 03:37 34.12911 -116.04740 33563 ft 398 kts 263°
2026-04-24 03:37 34.12585 -116.08067 33299 ft 399 kts 263°
2026-04-24 03:37 34.12261 -116.11370 33038 ft 400 kts 263°
2026-04-24 03:37 34.11930 -116.14717 32777 ft 401 kts 263°
2026-04-24 03:38 34.11599 -116.18066 32523 ft 402 kts 263°
2026-04-24 03:38 34.11266 -116.21424 32264 ft 402 kts 263°
2026-04-24 03:38 34.10932 -116.24775 32008 ft 403 kts 263°
2026-04-24 03:38 34.10601 -116.28091 31685 ft 405 kts 263°
2026-04-24 03:39 34.10259 -116.31482 31434 ft 407 kts 263°
2026-04-24 03:39 34.09901 -116.34877 31124 ft 407 kts 263°
2026-04-24 03:39 34.09536 -116.38269 30617 ft 408 kts 263°
2026-04-24 03:39 34.09169 -116.41665 30096 ft 407 kts 263°
2026-04-24 03:40 34.08803 -116.45046 29532 ft 403 kts 263°
2026-04-24 03:40 34.08443 -116.48378 29022 ft 398 kts 263°
2026-04-24 03:40 34.08087 -116.51670 28522 ft 393 kts 263°
2026-04-24 03:40 34.07742 -116.54862 28031 ft 386 kts 263°
2026-04-24 03:41 34.07396 -116.58056 27543 ft 379 kts 263°
2026-04-24 03:41 34.07067 -116.61180 27059 ft 372 kts 264°
2026-04-24 03:41 34.06781 -116.64264 26603 ft 369 kts 264°
2026-04-24 03:41 34.06508 -116.67338 26131 ft 369 kts 264°
2026-04-24 03:42 34.06231 -116.70419 25655 ft 368 kts 264°
2026-04-24 03:42 34.05953 -116.73474 25187 ft 364 kts 264°
2026-04-24 03:42 34.05673 -116.76488 24737 ft 361 kts 264°
2026-04-24 03:42 34.05394 -116.79464 24278 ft 360 kts 264°
2026-04-24 03:43 34.05112 -116.82470 23817 ft 359 kts 264°
2026-04-24 03:43 34.04832 -116.85447 23322 ft 356 kts 264°
2026-04-24 03:43 34.04553 -116.88406 22864 ft 353 kts 264°
2026-04-24 03:43 34.04244 -116.91341 22415 ft 352 kts 262°
2026-04-24 03:44 34.03865 -116.94251 21966 ft 350 kts 262°
2026-04-24 03:44 34.03469 -116.97144 21515 ft 347 kts 262°
2026-04-24 03:44 34.03084 -116.99974 21075 ft 344 kts 262°
2026-04-24 03:44 34.02704 -117.02821 20636 ft 342 kts 262°
2026-04-24 03:45 34.02344 -117.05642 20199 ft 340 kts 263°
2026-04-24 03:45 34.02011 -117.08455 19764 ft 337 kts 263°
2026-04-24 03:45 34.01687 -117.11254 19330 ft 335 kts 263°
2026-04-24 03:45 34.01364 -117.14024 18904 ft 332 kts 263°
2026-04-24 03:46 34.01041 -117.16774 18476 ft 331 kts 263°
2026-04-24 03:46 34.00719 -117.19482 18058 ft 330 kts 263°
2026-04-24 03:46 34.00393 -117.22220 17644 ft 328 kts 263°
2026-04-24 03:46 34.00067 -117.24950 17215 ft 328 kts 263°
2026-04-24 03:47 33.99742 -117.27666 16792 ft 325 kts 263°
2026-04-24 03:47 33.99422 -117.30327 16374 ft 324 kts 263°
2026-04-24 03:47 33.99101 -117.33012 15956 ft 323 kts 263°
2026-04-24 03:47 33.98787 -117.35690 15545 ft 321 kts 263°
2026-04-24 03:48 33.98476 -117.38350 15138 ft 320 kts 263°
2026-04-24 03:48 33.98164 -117.41003 14731 ft 320 kts 263°
2026-04-24 03:48 33.97856 -117.43622 14453 ft 312 kts 263°
2026-04-24 03:48 33.97555 -117.46205 13997 ft 310 kts 264°
2026-04-24 03:49 33.97459 -117.48793 13487 ft 308 kts 272°
2026-04-24 03:49 33.97681 -117.51339 13101 ft 302 kts 279°
2026-04-24 03:49 33.98117 -117.53759 12796 ft 293 kts 282°
2026-04-24 03:49 33.98547 -117.56128 12314 ft 286 kts 281°
2026-04-24 03:50 33.98958 -117.58450 11921 ft 278 kts 281°
2026-04-24 03:50 33.99364 -117.60756 11635 ft 284 kts 281°
2026-04-24 03:50 33.99774 -117.63087 11271 ft 283 kts 281°
2026-04-24 03:50 34.00180 -117.65393 10909 ft 280 kts 281°
2026-04-24 03:51 34.00510 -117.67696 10552 ft 278 kts 275°
2026-04-24 03:51 34.00531 -117.69998 10199 ft 280 kts 266°
2026-04-24 03:51 34.00301 -117.72321 9827 ft 279 kts 263°
2026-04-24 03:51 34.00066 -117.74636 9452 ft 276 kts 263°
2026-04-24 03:52 33.99840 -117.76952 9133 ft 279 kts 263°
2026-04-24 03:52 33.99614 -117.79274 8773 ft 278 kts 263°
2026-04-24 03:52 33.99389 -117.81575 8415 ft 276 kts 263°
2026-04-24 03:52 33.99163 -117.83888 8061 ft 278 kts 263°
2026-04-24 03:53 33.98938 -117.86203 7701 ft 277 kts 263°
2026-04-24 03:53 33.98716 -117.88498 7347 ft 274 kts 264°
2026-04-24 03:53 33.98506 -117.90745 7038 ft 273 kts 265°
2026-04-24 03:53 33.98336 -117.93068 6930 ft 276 kts 264°
2026-04-24 03:54 33.98112 -117.95376 6449 ft 279 kts 263°
2026-04-24 03:54 33.97871 -117.97717 6022 ft 281 kts 263°
2026-04-24 03:54 33.97633 -118.00046 5670 ft 278 kts 263°
2026-04-24 03:54 33.97403 -118.02305 5467 ft 270 kts 263°
2026-04-24 03:55 33.97174 -118.04549 5322 ft 270 kts 263°
2026-04-24 03:55 33.96947 -118.06781 5059 ft 266 kts 263°
2026-04-24 03:55 33.96723 -118.08977 4755 ft 261 kts 264°
2026-04-24 03:55 33.96503 -118.11137 4436 ft 258 kts 264°
2026-04-24 03:56 33.96285 -118.13269 4111 ft 255 kts 264°
2026-04-24 03:56 33.96069 -118.15390 3780 ft 253 kts 264°
2026-04-24 03:56 33.95859 -118.17453 3454 ft 251 kts 263°
2026-04-24 03:56 33.95647 -118.19530 3131 ft 249 kts 263°
2026-04-24 03:57 33.95437 -118.21593 2809 ft 246 kts 263°
2026-04-24 03:57 33.95231 -118.23610 2469 ft 238 kts 263°
2026-04-24 03:57 33.95034 -118.25538 2152 ft 226 kts 263°
2026-04-24 03:57 33.94848 -118.27367 1871 ft 210 kts 262°
2026-04-24 03:58 33.94677 -118.29047 1605 ft 194 kts 262°
2026-04-24 03:58 33.94522 -118.30563 1376 ft 175 kts 262°
2026-04-24 03:58 33.94381 -118.31946 1144 ft 156 kts 262°
2026-04-24 03:58 33.94258 -118.33165 943 ft 138 kts 261°
2026-04-24 03:59 33.94145 -118.34261 773 ft 126 kts 261°
2026-04-24 03:59 33.94040 -118.35301 615 ft 128 kts 262°
2026-04-24 03:59 33.93932 -118.36359 475 ft 125 kts 262°
2026-04-24 03:59 33.93829 -118.37390 307 ft 125 kts 262°
2026-04-24 04:00 33.93727 -118.38425 180 ft 124 kts 261°
2026-04-24 04:00 33.93624 -118.39424 124 ft 112 kts 262°
2026-04-24 04:00 33.93548 -118.40116 124 ft 54 kts 263°
2026-04-24 04:00 33.93516 -118.40439 125 ft 34 kts 266°
2026-04-24 04:01 33.93497 -118.40709 121 ft 29 kts 292°
2026-04-24 04:01 33.93545 -118.40739 123 ft 9 kts 359°
2026-04-24 04:01 33.93599 -118.40690 125 ft 2 kts 92°
2026-04-24 04:02 33.93600 -118.40689 125 ft 0 kts 85°
2026-04-24 04:02 33.93610 -118.40626 121 ft 17 kts 82°
2026-04-24 04:03 33.93624 -118.40471 124 ft 17 kts 84°
2026-04-24 04:03 33.93632 -118.40385 125 ft 10 kts 83°
2026-04-24 04:03 33.93661 -118.40360 123 ft 4 kts 329°
2026-04-24 04:03 33.93696 -118.40389 122 ft 9 kts 324°
2026-04-24 04:04 33.93774 -118.40457 123 ft 18 kts 321°
2026-04-24 04:04 33.93879 -118.40543 125 ft 16 kts 322°
2026-04-24 04:04 33.93915 -118.40577 122 ft 4 kts 22°
2026-04-24 04:04 33.93947 -118.40585 123 ft 6 kts 331°
2026-04-24 04:05 33.93959 -118.40597 120 ft 3 kts 322°
2026-04-24 04:05 33.93962 -118.40600 120 ft 0 kts 321°